Time,TemperatureF,DewpointF,PressureIn,WindDirection,WindDirectionDegrees,WindSpeedMPH,WindSpeedGustMPH,Humidity,HourlyPrecipIn,Conditions,Clouds,dailyrainin,SoftwareType,DateUTC
2013-04-15 00:00:00,46.4,41.2,29.84,ESE,117,6.0,6.0,82,0.00,,,0.01,Wunderground v.1.15,2013-04-15 04:00:00,
2013-04-15 00:05:00,46.4,41.2,29.83,ESE,106,5.0,6.0,82,0.00,,,0.00,Wunderground v.1.15,2013-04-15 04:05:00,
2013-04-15 00:10:00,46.6,41.1,29.83,SSE,153,6.0,6.0,81,0.00,,,0.00,Wunderground v.1.15,2013-04-15 04:10:00,
2013-04-15 00:15:00,46.3,40.8,29.83,SE,138,6.0,10.0,81,0.00,,,0.00,Wunderground v.1.15,2013-04-15 04:15:00,
2013-04-15 00:20:00,46.3,41.1,29.83,ESE,118,5.0,5.0,82,0.00,,,0.00,Wunderground v.1.15,2013-04-15 04:20:00,
2013-04-15 00:25:00,46.3,41.1,29.84,ESE,115,6.0,6.0,82,0.00,,,0.00,Wunderground v.1.15,2013-04-15 04:25:00,
2013-04-15 00:35:00,46.4,40.9,29.83,ESE,122,6.0,10.0,81,0.00,,,0.00,Wunderground v.1.15,2013-04-15 04:35:00,
2013-04-15 00:40:00,46.6,41.1,29.83,SSE,163,7.0,8.0,81,0.00,,,0.00,Wunderground v.1.15,2013-04-15 04:40:00,
2013-04-15 00:45:00,46.7,41.2,29.83,SE,126,7.0,8.0,81,0.00,,,0.00,Wunderground v.1.15,2013-04-15 04:45:00,
2013-04-15 00:50:00,46.6,40.8,29.83,SE,131,7.0,7.0,80,0.00,,,0.00,Wunderground v.1.15,2013-04-15 04:50:00,
2013-04-15 00:55:00,46.7,40.9,29.83,ESE,118,7.0,13.0,80,0.00,,,0.00,Wunderground v.1.15,2013-04-15 04:55:00,
2013-04-15 01:00:00,46.7,40.9,29.83,SE,145,6.0,6.0,80,0.00,,,0.00,Wunderground v.1.15,2013-04-15 05:00:00,
2013-04-15 01:10:00,46.6,40.8,29.83,ESE,115,5.0,5.0,80,0.00,,,0.00,Wunderground v.1.15,2013-04-15 05:10:00,
2013-04-15 01:15:00,46.5,40.7,29.83,SSE,160,5.0,5.0,80,0.00,,,0.00,Wunderground v.1.15,2013-04-15 05:15:00,
2013-04-15 01:20:00,46.5,40.7,29.83,ESE,121,5.0,5.0,80,0.00,,,0.00,Wunderground v.1.15,2013-04-15 05:20:00,
2013-04-15 01:25:00,46.4,40.6,29.83,SE,139,5.0,5.0,80,0.00,,,0.00,Wunderground v.1.15,2013-04-15 05:25:00,
2013-04-15 01:30:00,46.3,40.8,29.83,SE,127,3.0,3.0,81,0.00,,,0.00,Wunderground v.1.15,2013-04-15 05:30:00,
2013-04-15 01:40:00,46.3,40.8,29.83,SSE,158,3.0,5.0,81,0.00,,,0.00,Wunderground v.1.15,2013-04-15 05:40:00,
2013-04-15 01:45:00,46.4,40.9,29.83,SE,129,3.0,5.0,81,0.00,,,0.00,Wunderground v.1.15,2013-04-15 05:45:00,
2013-04-15 01:50:00,46.4,40.9,29.83,SSE,156,3.0,3.0,81,0.00,,,0.00,Wunderground v.1.15,2013-04-15 05:50:00,
2013-04-15 01:55:00,46.3,40.8,29.83,SE,135,3.0,3.0,81,0.00,,,0.00,Wunderground v.1.15,2013-04-15 05:55:00,
2013-04-15 02:00:00,46.2,40.7,29.83,SE,139,3.0,4.0,81,0.00,,,0.00,Wunderground v.1.15,2013-04-15 06:00:00,
2013-04-15 02:10:00,46.3,40.8,29.83,SE,127,5.0,5.0,81,0.00,,,0.00,Wunderground v.1.15,2013-04-15 06:10:00,
2013-04-15 02:15:00,46.3,40.8,29.83,East,100,4.0,5.0,81,0.00,,,0.00,Wunderground v.1.15,2013-04-15 06:15:00,
2013-04-15 02:20:00,46.2,40.7,29.83,South,169,3.0,3.0,81,0.00,,,0.00,Wunderground v.1.15,2013-04-15 06:20:00,
2013-04-15 02:25:00,46.2,40.7,29.83,SSE,153,2.0,6.0,81,0.00,,,0.00,Wunderground v.1.15,2013-04-15 06:25:00,
2013-04-15 02:30:00,46.1,40.6,29.83,ESE,118,2.0,3.0,81,0.00,,,0.00,Wunderground v.1.15,2013-04-15 06:30:00,
2013-04-15 02:35:00,46.2,40.7,29.83,ESE,110,3.0,4.0,81,0.00,,,0.00,Wunderground v.1.15,2013-04-15 06:35:00,
2013-04-15 02:40:00,46.2,40.7,29.83,SE,133,3.0,3.0,81,0.00,,,0.00,Wunderground v.1.15,2013-04-15 06:40:00,
2013-04-15 02:45:00,46.2,40.7,29.82,ESE,107,3.0,3.0,81,0.00,,,0.00,Wunderground v.1.15,2013-04-15 06:45:00,
2013-04-15 02:50:00,46.2,41.0,29.82,SE,139,3.0,4.0,82,0.00,,,0.00,Wunderground v.1.15,2013-04-15 06:50:00,
2013-04-15 02:55:00,46.3,41.1,29.83,SE,145,3.0,4.0,82,0.00,,,0.00,Wunderground v.1.15,2013-04-15 06:55:00,
2013-04-15 03:00:00,46.2,41.0,29.83,SE,134,2.0,2.0,82,0.00,,,0.00,Wunderground v.1.15,2013-04-15 07:00:00,
2013-04-15 03:45:00,46.4,41.2,29.85,SSE,163,1.0,2.0,82,0.00,,,0.00,Wunderground v.1.15,2013-04-15 07:45:00,
2013-04-15 03:50:00,46.5,41.3,29.85,SSE,166,1.0,1.0,82,0.00,,,0.00,Wunderground v.1.15,2013-04-15 07:50:00,
2013-04-15 03:55:00,46.4,41.2,29.86,SSW,205,0.0,1.0,82,0.00,,,0.00,Wunderground v.1.15,2013-04-15 07:55:00,
2013-04-15 04:00:00,46.5,41.6,29.86,South,184,0.0,1.0,83,0.00,,,0.00,Wunderground v.1.15,2013-04-15 08:00:00,
2013-04-15 04:05:00,46.7,41.8,29.86,South,170,1.0,1.0,83,0.00,,,0.00,Wunderground v.1.15,2013-04-15 08:05:00,
2013-04-15 04:10:00,46.8,41.6,29.87,SSE,163,1.0,1.0,82,0.00,,,0.00,Wunderground v.1.15,2013-04-15 08:10:00,
2013-04-15 04:15:00,46.9,42.0,29.86,SSE,155,1.0,1.0,83,0.00,,,0.00,Wunderground v.1.15,2013-04-15 08:15:00,
2013-04-15 04:20:00,47.0,41.8,29.87,SSE,154,1.0,1.0,82,0.00,,,0.00,Wunderground v.1.15,2013-04-15 08:20:00,
2013-04-15 04:25:00,47.1,41.9,29.87,South,176,1.0,2.0,82,0.00,,,0.00,Wunderground v.1.15,2013-04-15 08:25:00,
2013-04-15 04:30:00,47.2,42.0,29.87,SE,142,2.0,2.0,82,0.00,,,0.00,Wunderground v.1.15,2013-04-15 08:30:00,
2013-04-15 04:35:00,47.0,41.8,29.88,ESE,117,2.0,2.0,82,0.00,,,0.00,Wunderground v.1.15,2013-04-15 08:35:00,
2013-04-15 04:40:00,46.8,41.9,29.88,South,169,1.0,1.0,83,0.00,,,0.00,Wunderground v.1.15,2013-04-15 08:40:00,
2013-04-15 04:45:00,46.8,41.9,29.88,SSE,166,1.0,2.0,83,0.00,,,0.00,Wunderground v.1.15,2013-04-15 08:45:00,
2013-04-15 04:50:00,46.9,42.3,29.88,ESE,120,1.0,2.0,84,0.00,,,0.00,Wunderground v.1.15,2013-04-15 08:50:00,
2013-04-15 04:55:00,47.2,42.3,29.88,South,176,1.0,3.0,83,0.00,,,0.00,Wunderground v.1.15,2013-04-15 08:55:00,
2013-04-15 05:00:00,47.3,42.4,29.87,SE,138,1.0,1.0,83,0.00,,,0.00,Wunderground v.1.15,2013-04-15 09:00:00,
2013-04-15 05:10:00,47.3,42.4,29.88,ESE,108,1.0,1.0,83,0.00,,,0.00,Wunderground v.1.15,2013-04-15 09:10:00,
2013-04-15 05:15:00,47.4,42.5,29.88,ESE,113,1.0,1.0,83,0.00,,,0.00,Wunderground v.1.15,2013-04-15 09:15:00,
2013-04-15 05:20:00,47.4,42.5,29.87,ESE,107,2.0,2.0,83,0.00,,,0.00,Wunderground v.1.15,2013-04-15 09:20:00,
2013-04-15 05:25:00,47.5,42.6,29.87,ESE,115,2.0,3.0,83,0.00,,,0.00,Wunderground v.1.15,2013-04-15 09:25:00,
2013-04-15 05:30:00,47.4,42.8,29.87,ESE,113,2.0,3.0,84,0.00,,,0.00,Wunderground v.1.15,2013-04-15 09:30:00,
2013-04-15 05:35:00,47.3,42.7,29.87,SE,127,2.0,3.0,84,0.00,,,0.00,Wunderground v.1.15,2013-04-15 09:35:00,
2013-04-15 05:45:00,47.7,43.1,29.87,SE,124,2.0,3.0,84,0.00,,,0.00,Wunderground v.1.15,2013-04-15 09:45:00,
2013-04-15 05:50:00,47.6,43.3,29.86,SSE,158,3.0,4.0,85,0.00,,,0.00,Wunderground v.1.15,2013-04-15 09:50:00,
2013-04-15 05:55:00,47.9,43.6,29.86,SE,140,3.0,4.0,85,0.00,,,0.00,Wunderground v.1.15,2013-04-15 09:55:00,
2013-04-15 06:00:00,48.3,43.7,29.86,SE,135,2.0,2.0,84,0.00,,,0.00,Wunderground v.1.15,2013-04-15 10:00:00,
2013-04-15 06:10:00,48.9,44.0,29.86,South,180,2.0,3.0,83,0.00,,,0.00,Wunderground v.1.15,2013-04-15 10:10:00,
2013-04-15 06:20:00,49.1,44.2,29.85,SE,139,2.0,2.0,83,0.00,,,0.00,Wunderground v.1.15,2013-04-15 10:20:00,
2013-04-15 06:25:00,49.3,44.4,29.85,SSE,158,2.0,2.0,83,0.00,,,0.00,Wunderground v.1.15,2013-04-15 10:25:00,
2013-04-15 06:30:00,49.4,44.5,29.85,SE,145,2.0,2.0,83,0.00,,,0.00,Wunderground v.1.15,2013-04-15 10:30:00,
2013-04-15 06:35:00,49.3,44.4,29.85,ESE,115,2.0,2.0,83,0.00,,,0.00,Wunderground v.1.15,2013-04-15 10:35:00,
2013-04-15 06:40:00,49.5,44.6,29.85,SE,127,2.0,2.0,83,0.00,,,0.00,Wunderground v.1.15,2013-04-15 10:40:00,
2013-04-15 06:50:00,49.8,44.8,29.85,SE,145,2.0,2.0,83,0.00,,,0.00,Wunderground v.1.15,2013-04-15 10:50:00,
2013-04-15 06:55:00,49.9,44.9,29.85,SE,134,2.0,2.0,83,0.00,,,0.00,Wunderground v.1.15,2013-04-15 10:55:00,
2013-04-15 07:00:00,50.0,44.7,29.84,SE,124,2.0,3.0,82,0.00,,,0.00,Wunderground v.1.15,2013-04-15 11:00:00,
2013-04-15 07:10:00,49.7,44.7,29.84,SE,136,4.0,4.0,83,0.00,,,0.00,Wunderground v.1.15,2013-04-15 11:10:00,
2013-04-15 07:15:00,49.7,44.7,29.84,South,169,3.0,4.0,83,0.00,,,0.00,Wunderground v.1.15,2013-04-15 11:15:00,
2013-04-15 07:20:00,49.8,44.8,29.85,SE,142,3.0,3.0,83,0.00,,,0.00,Wunderground v.1.15,2013-04-15 11:20:00,
2013-04-15 07:25:00,49.8,44.8,29.85,SE,138,3.0,3.0,83,0.00,,,0.00,Wunderground v.1.15,2013-04-15 11:25:00,
2013-04-15 07:35:00,49.7,44.7,29.85,SSE,153,2.0,4.0,83,0.00,,,0.00,Wunderground v.1.15,2013-04-15 11:35:00,
2013-04-15 07:40:00,49.8,44.8,29.86,SSE,153,3.0,3.0,83,0.00,,,0.00,Wunderground v.1.15,2013-04-15 11:40:00,
2013-04-15 07:45:00,49.9,44.9,29.85,SE,128,3.0,3.0,83,0.00,,,0.00,Wunderground v.1.15,2013-04-15 11:45:00,
2013-04-15 07:55:00,49.9,44.9,29.87,West,264,3.0,3.0,83,0.00,,,0.00,Wunderground v.1.15,2013-04-15 11:55:00,
2013-04-15 08:00:00,50.0,45.0,29.88,SW,219,2.0,3.0,83,0.00,,,0.00,Wunderground v.1.15,2013-04-15 12:00:00,
2013-04-15 08:10:00,50.8,45.5,29.88,SSE,160,2.0,2.0,82,0.00,,,0.00,Wunderground v.1.15,2013-04-15 12:10:00,
2013-04-15 08:15:00,50.9,45.6,29.89,SSW,204,1.0,2.0,82,0.00,,,0.00,Wunderground v.1.15,2013-04-15 12:15:00,
2013-04-15 08:20:00,51.0,45.7,29.89,SE,140,2.0,2.0,82,0.00,,,0.00,Wunderground v.1.15,2013-04-15 12:20:00,
2013-04-15 08:30:00,52.7,47.0,29.89,South,180,3.0,3.0,81,0.00,,,0.00,Wunderground v.1.15,2013-04-15 12:30:00,
2013-04-15 08:35:00,53.8,47.4,29.89,South,174,4.0,7.0,79,0.00,,,0.00,Wunderground v.1.15,2013-04-15 12:35:00,
2013-04-15 08:40:00,54.3,47.2,29.89,SSW,195,5.0,5.0,77,0.00,,,0.00,Wunderground v.1.15,2013-04-15 12:40:00,
2013-04-15 08:45:00,54.0,47.0,29.89,South,180,6.0,6.0,77,0.00,,,0.00,Wunderground v.1.15,2013-04-15 12:45:00,
2013-04-15 08:50:00,53.7,47.0,29.89,South,183,6.0,6.0,78,0.00,,,0.00,Wunderground v.1.15,2013-04-15 12:50:00,
2013-04-15 09:00:00,53.3,47.0,29.89,SSE,155,4.0,7.0,79,0.00,,,0.00,Wunderground v.1.15,2013-04-15 13:00:00,
2013-04-15 09:10:00,53.4,47.4,29.89,South,188,5.0,5.0,80,0.00,,,0.00,Wunderground v.1.15,2013-04-15 13:10:00,
2013-04-15 09:15:00,53.6,47.2,29.89,SSE,164,5.0,5.0,79,0.00,,,0.00,Wunderground v.1.15,2013-04-15 13:15:00,
2013-04-15 09:20:00,54.2,48.2,29.90,SSW,197,5.0,5.0,80,0.00,,,0.00,Wunderground v.1.15,2013-04-15 13:20:00,
2013-04-15 09:25:00,54.9,48.2,29.89,SW,215,5.0,7.0,78,0.00,,,0.00,Wunderground v.1.15,2013-04-15 13:25:00,
2013-04-15 09:35:00,55.7,48.6,29.89,SSW,212,5.0,6.0,77,0.00,,,0.00,Wunderground v.1.15,2013-04-15 13:35:00,
2013-04-15 09:40:00,56.1,48.6,29.88,SSW,203,6.0,8.0,76,0.00,,,0.00,Wunderground v.1.15,2013-04-15 13:40:00,
2013-04-15 09:45:00,56.7,49.2,29.88,SSW,194,6.0,8.0,76,0.00,,,0.00,Wunderground v.1.15,2013-04-15 13:45:00,
2013-04-15 09:50:00,57.2,49.3,29.88,SSW,196,6.0,6.0,75,0.00,,,0.00,Wunderground v.1.15,2013-04-15 13:50:00,
2013-04-15 09:55:00,57.4,49.2,29.88,SW,236,6.0,8.0,74,0.00,,,0.00,Wunderground v.1.15,2013-04-15 13:55:00,
2013-04-15 10:00:00,57.5,49.6,29.88,SSW,210,7.0,8.0,75,0.00,,,0.00,Wunderground v.1.15,2013-04-15 14:00:00,
2013-04-15 10:10:00,57.8,49.6,29.88,South,183,8.0,10.0,74,0.00,,,0.00,Wunderground v.1.15,2013-04-15 14:10:00,
2013-04-15 10:15:00,58.0,49.8,29.88,SW,226,8.0,10.0,74,0.00,,,0.00,Wunderground v.1.15,2013-04-15 14:15:00,
2013-04-15 10:20:00,58.2,50.0,29.88,SSW,193,7.0,8.0,74,0.00,,,0.00,Wunderground v.1.15,2013-04-15 14:20:00,
2013-04-15 10:25:00,58.4,50.1,29.88,SSE,159,7.0,8.0,74,0.00,,,0.00,Wunderground v.1.15,2013-04-15 14:25:00,
2013-04-15 10:30:00,58.4,49.8,29.88,SW,226,8.0,10.0,73,0.00,,,0.00,Wunderground v.1.15,2013-04-15 14:30:00,
2013-04-15 10:40:00,58.6,50.3,29.88,SSE,159,8.0,8.0,74,0.00,,,0.00,Wunderground v.1.15,2013-04-15 14:40:00,
2013-04-15 10:45:00,58.7,50.4,29.88,WSW,243,8.0,8.0,74,0.00,,,0.00,Wunderground v.1.15,2013-04-15 14:45:00,
2013-04-15 10:50:00,58.8,50.5,29.88,SSW,205,8.0,10.0,74,0.00,,,0.00,Wunderground v.1.15,2013-04-15 14:50:00,
2013-04-15 10:55:00,58.9,50.6,29.88,WSW,239,7.0,10.0,74,0.00,,,0.00,Wunderground v.1.15,2013-04-15 14:55:00,
2013-04-15 11:00:00,59.0,50.7,29.88,SW,229,7.0,9.0,74,0.00,,,0.00,Wunderground v.1.15,2013-04-15 15:00:00,
2013-04-15 11:10:00,59.2,50.9,29.87,South,177,8.0,8.0,74,0.00,,,0.00,Wunderground v.1.15,2013-04-15 15:10:00,
2013-04-15 11:15:00,59.4,51.1,29.87,SE,138,7.0,8.0,74,0.00,,,0.00,Wunderground v.1.15,2013-04-15 15:15:00,
2013-04-15 11:20:00,59.8,51.9,29.86,South,179,8.0,8.0,75,0.00,,,0.00,Wunderground v.1.15,2013-04-15 15:20:00,
2013-04-15 11:25:00,60.1,51.8,29.86,South,172,9.0,9.0,74,0.00,,,0.00,Wunderground v.1.15,2013-04-15 15:25:00,
2013-04-15 11:30:00,60.3,52.0,29.86,SSW,194,9.0,9.0,74,0.00,,,0.00,Wunderground v.1.15,2013-04-15 15:30:00,
2013-04-15 11:35:00,60.5,51.8,29.87,South,169,10.0,12.0,73,0.00,,,0.00,Wunderground v.1.15,2013-04-15 15:35:00,
2013-04-15 11:40:00,60.9,52.6,29.87,SSE,166,9.0,9.0,74,0.00,,,0.00,Wunderground v.1.15,2013-04-15 15:40:00,
2013-04-15 11:50:00,61.5,52.4,29.87,SSE,164,9.0,10.0,72,0.00,,,0.00,Wunderground v.1.15,2013-04-15 15:50:00,
2013-04-15 11:55:00,61.3,52.2,29.87,SW,221,11.0,11.0,72,0.00,,,0.00,Wunderground v.1.15,2013-04-15 15:55:00,
2013-04-15 12:00:00,61.4,52.7,29.87,South,189,12.0,12.0,73,0.00,,,0.00,Wunderground v.1.15,2013-04-15 16:00:00,
2013-04-15 12:10:00,61.8,52.7,29.87,SW,224,11.0,12.0,72,0.00,,,0.00,Wunderground v.1.15,2013-04-15 16:10:00,
2013-04-15 12:20:00,61.5,52.4,29.88,SW,214,11.0,11.0,72,0.00,,,0.00,Wunderground v.1.15,2013-04-15 16:20:00,
2013-04-15 12:25:00,61.5,53.1,29.88,SSW,210,11.0,11.0,74,0.00,,,0.00,Wunderground v.1.15,2013-04-15 16:25:00,
2013-04-15 12:30:00,61.3,52.6,29.89,SSW,197,10.0,10.0,73,0.00,,,0.00,Wunderground v.1.15,2013-04-15 16:30:00,
2013-04-15 12:35:00,61.1,52.4,29.89,SW,221,10.0,10.0,73,0.00,,,0.00,Wunderground v.1.15,2013-04-15 16:35:00,
2013-04-15 12:40:00,60.8,52.5,29.89,SSW,204,10.0,10.0,74,0.00,,,0.00,Wunderground v.1.15,2013-04-15 16:40:00,
2013-04-15 12:45:00,60.6,52.3,29.89,SSW,212,10.0,10.0,74,0.00,,,0.00,Wunderground v.1.15,2013-04-15 16:45:00,
2013-04-15 12:55:00,60.7,52.4,29.89,SSW,212,7.0,11.0,74,0.00,,,0.00,Wunderground v.1.15,2013-04-15 16:55:00,
2013-04-15 13:00:00,60.6,52.3,29.89,South,181,8.0,8.0,74,0.00,,,0.00,Wunderground v.1.15,2013-04-15 17:00:00,
2013-04-15 13:10:00,60.6,52.3,29.89,SW,224,8.0,8.0,74,0.00,,,0.00,Wunderground v.1.15,2013-04-15 17:10:00,
2013-04-15 13:15:00,60.5,52.2,29.89,SSW,212,9.0,9.0,74,0.00,,,0.00,Wunderground v.1.15,2013-04-15 17:15:00,
2013-04-15 13:25:00,60.3,52.3,29.89,SSW,210,9.0,11.0,75,0.00,,,0.00,Wunderground v.1.15,2013-04-15 17:25:00,
2013-04-15 13:30:00,60.2,52.2,29.89,SW,235,9.0,9.0,75,0.00,,,0.00,Wunderground v.1.15,2013-04-15 17:30:00,
2013-04-15 13:35:00,60.3,52.3,29.89,SW,232,9.0,9.0,75,0.00,,,0.00,Wunderground v.1.15,2013-04-15 17:35:00,
2013-04-15 13:40:00,60.4,52.4,29.89,SW,221,8.0,8.0,75,0.00,,,0.00,Wunderground v.1.15,2013-04-15 17:40:00,
2013-04-15 13:45:00,60.7,52.7,29.88,WSW,249,7.0,12.0,75,0.00,,,0.00,Wunderground v.1.15,2013-04-15 17:45:00,
2013-04-15 13:50:00,60.9,52.9,29.88,SSW,204,7.0,10.0,75,0.00,,,0.00,Wunderground v.1.15,2013-04-15 17:50:00,
2013-04-15 14:00:00,60.8,52.8,29.87,South,183,9.0,9.0,75,0.00,,,0.00,Wunderground v.1.15,2013-04-15 18:00:00,
2013-04-15 14:10:00,60.6,53.0,29.87,SW,215,9.0,11.0,76,0.00,,,0.00,Wunderground v.1.15,2013-04-15 18:10:00,
2013-04-15 14:15:00,60.5,52.9,29.87,WSW,242,9.0,11.0,76,0.00,,,0.00,Wunderground v.1.15,2013-04-15 18:15:00,
2013-04-15 14:20:00,60.5,53.3,29.87,SSW,205,9.0,11.0,77,0.00,,,0.00,Wunderground v.1.15,2013-04-15 18:20:00,
2013-04-15 14:25:00,60.6,53.0,29.86,SSE,158,10.0,11.0,76,0.00,,,0.00,Wunderground v.1.15,2013-04-15 18:25:00,
2013-04-15 14:30:00,60.7,53.1,29.87,South,180,9.0,9.0,76,0.00,,,0.00,Wunderground v.1.15,2013-04-15 18:30:00,
2013-04-15 14:35:00,60.6,53.0,29.86,ESE,110,9.0,9.0,76,0.00,,,0.00,Wunderground v.1.15,2013-04-15 18:35:00,
2013-04-15 14:40:00,60.7,53.1,29.86,SE,146,8.0,8.0,76,0.00,,,0.00,Wunderground v.1.15,2013-04-15 18:40:00,
2013-04-15 14:45:00,60.9,53.3,29.87,SW,226,7.0,10.0,76,0.00,,,0.00,Wunderground v.1.15,2013-04-15 18:45:00,
2013-04-15 14:50:00,61.0,53.4,29.87,SSW,198,8.0,8.0,76,0.00,,,0.00,Wunderground v.1.15,2013-04-15 18:50:00,
2013-04-15 14:55:00,61.0,53.4,29.87,WSW,250,9.0,9.0,76,0.00,,,0.00,Wunderground v.1.15,2013-04-15 18:55:00,
2013-04-15 15:00:00,60.8,53.2,29.87,SSE,167,7.0,9.0,76,0.00,,,0.00,Wunderground v.1.15,2013-04-15 19:00:00,
2013-04-15 15:10:00,60.3,53.1,29.87,SW,226,7.0,7.0,77,0.00,,,0.00,Wunderground v.1.15,2013-04-15 19:10:00,
2013-04-15 15:15:00,60.3,53.4,29.87,SW,231,6.0,7.0,78,0.00,,,0.00,Wunderground v.1.15,2013-04-15 19:15:00,
2013-04-15 15:20:00,60.3,53.4,29.86,SW,232,5.0,7.0,78,0.00,,,0.00,Wunderground v.1.15,2013-04-15 19:20:00,
2013-04-15 15:25:00,60.4,53.5,29.86,SW,224,4.0,7.0,78,0.00,,,0.00,Wunderground v.1.15,2013-04-15 19:25:00,
2013-04-15 15:35:00,60.4,53.5,29.86,South,186,4.0,4.0,78,0.00,,,0.00,Wunderground v.1.15,2013-04-15 19:35:00,
2013-04-15 15:40:00,60.5,54.0,29.86,SSW,212,4.0,7.0,79,0.00,,,0.00,Wunderground v.1.15,2013-04-15 19:40:00,
2013-04-15 15:55:00,61.3,54.0,29.85,South,174,7.0,8.0,77,0.00,,,0.00,Wunderground v.1.15,2013-04-15 19:55:00,
2013-04-15 16:00:00,62.0,54.3,29.85,South,177,6.0,6.0,76,0.00,,,0.00,Wunderground v.1.15,2013-04-15 20:00:00,
2013-04-15 16:05:00,62.7,54.3,29.85,South,177,6.0,9.0,74,0.00,,,0.00,Wunderground v.1.15,2013-04-15 20:05:00,
2013-04-15 16:10:00,63.2,55.5,29.85,SSW,198,6.0,6.0,76,0.00,,,0.00,Wunderground v.1.15,2013-04-15 20:10:00,
2013-04-15 16:15:00,63.4,55.0,29.85,SSW,195,6.0,9.0,74,0.00,,,0.00,Wunderground v.1.15,2013-04-15 20:15:00,
2013-04-15 16:20:00,63.3,54.5,29.85,SSW,211,6.0,7.0,73,0.00,,,0.00,Wunderground v.1.15,2013-04-15 20:20:00,
2013-04-15 16:25:00,62.7,54.3,29.86,SSW,195,6.0,7.0,74,0.00,,,0.00,Wunderground v.1.15,2013-04-15 20:25:00,
2013-04-15 16:30:00,62.2,54.2,29.86,SSW,194,6.0,6.0,75,0.00,,,0.00,Wunderground v.1.15,2013-04-15 20:30:00,
2013-04-15 16:35:00,61.8,54.2,29.87,SSW,200,5.0,6.0,76,0.00,,,0.00,Wunderground v.1.15,2013-04-15 20:35:00,
2013-04-15 16:45:00,61.5,54.2,29.86,South,172,4.0,6.0,77,0.00,,,0.00,Wunderground v.1.15,2013-04-15 20:45:00,
2013-04-15 16:50:00,61.5,54.6,29.86,SSE,160,4.0,4.0,78,0.00,,,0.00,Wunderground v.1.15,2013-04-15 20:50:00,
2013-04-15 16:55:00,61.9,55.0,29.85,South,181,4.0,4.0,78,0.00,,,0.00,Wunderground v.1.15,2013-04-15 20:55:00,
2013-04-15 17:00:00,62.3,54.6,29.86,SSW,203,3.0,7.0,76,0.00,,,0.00,Wunderground v.1.15,2013-04-15 21:00:00,
2013-04-15 17:10:00,62.0,54.7,29.86,SW,226,4.0,4.0,77,0.00,,,0.00,Wunderground v.1.15,2013-04-15 21:10:00,
2013-04-15 17:20:00,61.6,54.7,29.86,SSW,200,3.0,3.0,78,0.00,,,0.00,Wunderground v.1.15,2013-04-15 21:20:00,
2013-04-15 17:25:00,61.5,54.6,29.86,SW,221,3.0,3.0,78,0.00,,,0.00,Wunderground v.1.15,2013-04-15 21:25:00,
2013-04-15 17:30:00,61.4,54.8,29.86,SW,222,3.0,3.0,79,0.00,,,0.00,Wunderground v.1.15,2013-04-15 21:30:00,
2013-04-15 17:35:00,61.4,54.8,29.87,SSW,198,3.0,3.0,79,0.00,,,0.00,Wunderground v.1.15,2013-04-15 21:35:00,
2013-04-15 17:40:00,61.3,54.7,29.87,SW,218,3.0,3.0,79,0.00,,,0.00,Wunderground v.1.15,2013-04-15 21:40:00,
2013-04-15 17:50:00,61.3,55.1,29.87,SW,221,2.0,2.0,80,0.00,,,0.00,Wunderground v.1.15,2013-04-15 21:50:00,
2013-04-15 17:55:00,61.3,54.7,29.87,SW,215,3.0,4.0,79,0.00,,,0.00,Wunderground v.1.15,2013-04-15 21:55:00,
2013-04-15 18:00:00,61.4,54.8,29.87,SW,233,3.0,3.0,79,0.00,,,0.00,Wunderground v.1.15,2013-04-15 22:00:00,
2013-04-15 18:10:00,61.3,54.7,29.87,WSW,243,2.0,6.0,79,0.00,,,0.00,Wunderground v.1.15,2013-04-15 22:10:00,
2013-04-15 18:15:00,61.3,55.1,29.87,West,274,3.0,6.0,80,0.00,,,0.00,Wunderground v.1.15,2013-04-15 22:15:00,
2013-04-15 18:25:00,61.2,55.0,29.87,SW,226,3.0,8.0,80,0.00,,,0.00,Wunderground v.1.15,2013-04-15 22:25:00,
2013-04-15 18:30:00,61.3,55.4,29.87,SSW,202,4.0,4.0,81,0.00,,,0.00,Wunderground v.1.15,2013-04-15 22:30:00,
2013-04-15 18:35:00,60.9,55.4,29.87,SW,218,4.0,4.0,82,0.00,,,0.00,Wunderground v.1.15,2013-04-15 22:35:00,
2013-04-15 18:40:00,60.5,55.6,29.87,WSW,257,4.0,4.0,84,0.15,,,0.01,Wunderground v.1.15,2013-04-15 22:40:00,
2013-04-15 18:45:00,60.1,55.6,29.87,SW,231,3.0,4.0,85,0.12,,,0.02,Wunderground v.1.15,2013-04-15 22:45:00,
2013-04-15 18:55:00,59.5,55.9,29.87,SSW,194,2.0,3.0,88,0.09,,,0.04,Wunderground v.1.15,2013-04-15 22:55:00,
2013-04-15 19:00:00,59.1,55.9,29.86,SSW,193,1.0,1.0,89,0.09,,,0.04,Wunderground v.1.15,2013-04-15 23:00:00,
2013-04-15 19:10:00,58.6,55.7,29.88,SSE,159,0.0,0.0,90,0.04,,,0.04,Wunderground v.1.15,2013-04-15 23:10:00,
2013-04-15 19:15:00,58.5,55.6,29.89,SW,224,0.0,0.0,90,0.00,,,0.04,Wunderground v.1.15,2013-04-15 23:15:00,
2013-04-15 19:20:00,58.2,55.6,29.89,WSW,248,0.0,1.0,91,0.00,,,0.04,Wunderground v.1.15,2013-04-15 23:20:00,
2013-04-15 19:30:00,58.2,55.9,29.88,SSW,210,1.0,2.0,92,0.24,,,0.07,Wunderground v.1.15,2013-04-15 23:30:00,
2013-04-15 19:35:00,58.2,55.9,29.87,SE,139,2.0,2.0,92,0.19,,,0.08,Wunderground v.1.15,2013-04-15 23:35:00,
2013-04-15 19:40:00,57.8,55.5,29.87,SE,146,1.0,1.0,92,0.10,,,0.09,Wunderground v.1.15,2013-04-15 23:40:00,
2013-04-15 19:45:00,57.5,55.5,29.87,South,173,1.0,1.0,93,0.08,,,0.09,Wunderground v.1.15,2013-04-15 23:45:00,
2013-04-15 19:50:00,57.4,55.4,29.87,South,169,1.0,1.0,93,0.05,,,0.09,Wunderground v.1.15,2013-04-15 23:50:00,
2013-04-15 19:55:00,57.1,55.1,29.87,South,171,1.0,1.0,93,0.00,,,0.09,Wunderground v.1.15,2013-04-15 23:55:00,
2013-04-15 20:00:00,56.9,55.2,29.88,SW,233,0.0,0.0,94,0.00,,,0.10,Wunderground v.1.15,2013-04-16 00:00:00,
2013-04-15 20:10:00,56.8,55.1,29.87,SSW,194,0.0,0.0,94,0.00,,,0.10,Wunderground v.1.15,2013-04-16 00:10:00,
2013-04-15 20:15:00,56.7,55.3,29.88,SSW,195,0.0,0.0,95,0.00,,,0.10,Wunderground v.1.15,2013-04-16 00:15:00,
2013-04-15 20:20:00,56.7,55.3,29.88,WSW,239,0.0,0.0,95,0.00,,,0.10,Wunderground v.1.15,2013-04-16 00:20:00,
2013-04-15 20:30:00,56.7,55.3,29.88,WSW,239,0.0,0.0,95,0.15,,,0.12,Wunderground v.1.15,2013-04-16 00:30:00,
2013-04-15 20:35:00,56.7,55.3,29.89,SW,231,0.0,0.0,95,0.07,,,0.12,Wunderground v.1.15,2013-04-16 00:35:00,
2013-04-15 20:40:00,56.7,55.3,29.88,SSW,193,0.0,1.0,95,0.05,,,0.13,Wunderground v.1.15,2013-04-16 00:40:00,
2013-04-15 20:45:00,56.6,55.2,29.88,ESE,118,1.0,1.0,95,0.09,,,0.14,Wunderground v.1.15,2013-04-16 00:45:00,
2013-04-15 20:50:00,56.5,55.1,29.87,ESE,115,1.0,1.0,95,0.16,,,0.15,Wunderground v.1.15,2013-04-16 00:50:00,
2013-04-15 20:55:00,56.4,55.3,29.88,ESE,122,1.0,1.0,96,0.08,,,0.15,Wunderground v.1.15,2013-04-16 00:55:00,
2013-04-15 21:00:00,56.3,55.2,29.88,SW,219,1.0,1.0,96,0.05,,,0.15,Wunderground v.1.15,2013-04-16 01:00:00,
2013-04-15 21:10:00,56.2,55.1,29.88,South,170,0.0,1.0,96,0.00,,,0.16,Wunderground v.1.15,2013-04-16 01:10:00,
2013-04-15 21:15:00,56.2,55.1,29.88,SSE,148,0.0,1.0,96,0.00,,,0.16,Wunderground v.1.15,2013-04-16 01:15:00,
2013-04-15 21:20:00,56.1,55.0,29.88,SSE,148,0.0,1.0,96,0.00,,,0.16,Wunderground v.1.15,2013-04-16 01:20:00,
2013-04-15 21:25:00,56.1,55.0,29.88,SE,139,0.0,1.0,96,0.00,,,0.16,Wunderground v.1.15,2013-04-16 01:25:00,
2013-04-15 21:35:00,56.0,54.9,29.87,SE,139,1.0,3.0,96,0.00,,,0.16,Wunderground v.1.15,2013-04-16 01:35:00,
2013-04-15 21:40:00,56.0,54.9,29.88,SSE,166,2.0,2.0,96,0.00,,,0.16,Wunderground v.1.15,2013-04-16 01:40:00,
2013-04-15 21:45:00,56.1,55.0,29.86,SE,128,1.0,2.0,96,0.00,,,0.16,Wunderground v.1.15,2013-04-16 01:45:00,
2013-04-15 21:50:00,56.1,55.0,29.87,SE,139,1.0,1.0,96,0.00,,,0.16,Wunderground v.1.15,2013-04-16 01:50:00,
2013-04-15 21:55:00,56.2,55.1,29.87,SSE,153,1.0,1.0,96,0.00,,,0.16,Wunderground v.1.15,2013-04-16 01:55:00,
2013-04-15 22:00:00,56.2,55.1,29.86,SE,145,1.0,1.0,96,0.00,,,0.16,Wunderground v.1.15,2013-04-16 02:00:00,
2013-04-15 22:10:00,56.3,54.9,29.87,SSE,162,0.0,0.0,95,0.00,,,0.16,Wunderground v.1.15,2013-04-16 02:10:00,
2013-04-15 22:15:00,56.3,54.9,29.86,South,187,0.0,3.0,95,0.00,,,0.16,Wunderground v.1.15,2013-04-16 02:15:00,
2013-04-15 22:20:00,56.4,55.0,29.87,SSW,200,1.0,2.0,95,0.00,,,0.16,Wunderground v.1.15,2013-04-16 02:20:00,
2013-04-15 22:25:00,56.4,55.0,29.87,SW,225,1.0,2.0,95,0.00,,,0.16,Wunderground v.1.15,2013-04-16 02:25:00,
2013-04-15 22:30:00,56.3,54.9,29.88,SW,235,1.0,1.0,95,0.00,,,0.16,Wunderground v.1.15,2013-04-16 02:30:00,
2013-04-15 22:40:00,56.3,54.9,29.87,SW,229,1.0,1.0,95,0.00,,,0.16,Wunderground v.1.15,2013-04-16 02:40:00,
2013-04-15 22:45:00,56.4,55.0,29.87,WSW,239,0.0,1.0,95,0.00,,,0.16,Wunderground v.1.15,2013-04-16 02:45:00,
2013-04-15 22:50:00,56.5,55.1,29.87,WNW,283,0.0,1.0,95,0.00,,,0.16,Wunderground v.1.15,2013-04-16 02:50:00,
2013-04-15 22:55:00,56.5,55.1,29.87,WNW,284,0.0,1.0,95,0.00,,,0.16,Wunderground v.1.15,2013-04-16 02:55:00,
2013-04-15 23:00:00,56.5,55.1,29.88,WNW,302,0.0,3.0,95,0.00,,,0.16,Wunderground v.1.15,2013-04-16 03:00:00,
2013-04-15 23:10:00,55.7,54.3,29.89,WNW,295,4.0,8.0,95,0.00,,,0.16,Wunderground v.1.15,2013-04-16 03:10:00,
2013-04-15 23:15:00,53.9,51.3,29.89,NW,308,5.0,11.0,91,0.00,,,0.16,Wunderground v.1.15,2013-04-16 03:15:00,
2013-04-15 23:20:00,52.2,50.2,29.90,NW,304,7.0,9.0,93,0.00,,,0.17,Wunderground v.1.15,2013-04-16 03:20:00,
2013-04-15 23:25:00,51.1,49.1,29.90,NW,310,7.0,9.0,93,0.00,,,0.17,Wunderground v.1.15,2013-04-16 03:25:00,
2013-04-15 23:30:00,50.2,48.3,29.91,NW,311,7.0,7.0,93,0.00,,,0.17,Wunderground v.1.15,2013-04-16 03:30:00,
2013-04-15 23:35:00,49.7,47.8,29.90,North,349,6.0,7.0,93,0.00,,,0.17,Wunderground v.1.15,2013-04-16 03:35:00,
2013-04-15 23:40:00,49.2,47.5,29.90,NW,316,5.0,6.0,94,0.00,,,0.17,Wunderground v.1.15,2013-04-16 03:40:00,
2013-04-15 23:45:00,49.0,47.3,29.89,NW,307,6.0,6.0,94,0.00,,,0.17,Wunderground v.1.15,2013-04-16 03:45:00,
2013-04-15 23:50:00,48.8,47.2,29.90,WNW,295,6.0,6.0,94,0.00,,,0.17,Wunderground v.1.15,2013-04-16 03:50:00,
2013-04-15 23:55:00,48.7,47.1,29.90,WNW,283,4.0,6.0,94,0.00,,,0.17,Wunderground v.1.15,2013-04-16 03:55:00,